Weather History for KAUW - October, 2012

Change the Weather History Date:

Tuesday, October 9, 2012

  Actual Average Record
Temperature  
Mean Temperature 46 °F 49 °F  
Max Temperature 54 °F 58 °F 79 °F (1905)
Min Temperature 38 °F 39 °F 24 °F (1989)
Degree Days  
Heating Degree Days 19 17  
Month to date heating degree days 149 135  
Since 1 July heating degree days 419 428  
Cooling Degree Days 0 0  
Month to date cooling degree days 0 0  
Year to date cooling degree days 725 405  
Moisture  
Dew Point 40 °F    
Average Humidity 73    
Maximum Humidity 100    
Minimum Humidity 45    
Precipitation  
Precipitation 0.28 in 0.11 in 1.10 in (1939)
Month to date precipitation 0.28 1.01  
Year to date precipitation 21.37 27.12  
Snow  
Snow 0.00 in 0.00 in 3.00 in (1932)
Month to date snowfall T 0.2  
Since 1 July snowfall T 0.2  
Snow Depth 0.00 in    
Sea Level Pressure  
Sea Level Pressure 29.75 in    
Wind  
Wind Speed 10 mph (WSW)    
Max Wind Speed 24 mph    
Max Gust Speed 30 mph    
Visibility 8 miles    
Events Rain    
T = Trace of Precipitation, MM = Missing Value Source: NWS Daily Summary

Daily Weather History Graph

Daily Weather History Graph

Search for Another Location

Airport or City:

Trip Planner

Search our weather history database for the weather conditions in past years. The results will help you decide how hot, cold, wet, or windy it might be!

Date:

Astronomy

Oct. 09, 2012 Rise Set
Actual Time 7:07 AM CDT 6:23 PM CDT
Civil Twilight 6:37 AM CDT 6:52 PM CDT
Nautical Twilight 6:03 AM CDT 7:26 PM CDT
Astronomical Twilight 5:29 AM CDT 8:00 PM CDT
Moon 12:28 AM CDT (10/9) 3:04 PM CDT (10/9)
Length of Visible Light 12h 14m
Length of Day
11h 16m
Last Quarter, 36% of the Moon is Illuminated
Oct 9
Last Quarter
Oct 15
New
Oct 21
First Quarter
Oct 29
Full
Nov 6
Last Quarter

Hourly Weather History & Observations

Time (CDT) Temp. Windchill Dew Point Humidity Pressure Visibility Wind Dir Wind Speed Gust Speed Precip Events Conditions
12:54 AM 54.0 °F - 32.0 °F 43% 29.72 in 10.0 mi SSW 13.8 mph 23.0 mph N/A   Mostly Cloudy
1:54 AM 54.0 °F - 33.1 °F 45% 29.73 in 10.0 mi SW 12.7 mph 18.4 mph N/A   Overcast
2:54 AM 50.0 °F - 43.0 °F 77% 29.75 in 10.0 mi SW 9.2 mph - 0.01 in Rain Light Rain
3:54 AM 48.9 °F - 44.1 °F 83% 29.75 in 10.0 mi SW 9.2 mph - 0.00 in   Overcast
4:54 AM 48.0 °F - 44.1 °F 86% 29.75 in 10.0 mi SW 4.6 mph - 0.00 in   Overcast
5:54 AM 46.9 °F - 45.0 °F 93% 29.76 in 10.0 mi SW 9.2 mph - N/A   Overcast
6:54 AM 46.9 °F - 45.0 °F 93% 29.76 in 10.0 mi SW 6.9 mph - 0.00 in   Overcast
7:54 AM 46.9 °F - 45.0 °F 93% 29.76 in 10.0 mi SSW 6.9 mph - 0.00 in   Overcast
8:54 AM 46.9 °F - 44.1 °F 90% 29.76 in 5.0 mi SSW 8.1 mph - 0.03 in Rain Light Rain
9:12 AM 46.4 °F 42.4 °F 44.6 °F 93% 29.73 in 8.0 mi SSW 8.1 mph - 0.01 in Rain Light Rain
9:54 AM 46.9 °F - 44.1 °F 90% 29.75 in 7.0 mi SSW 9.2 mph - 0.02 in Rain Light Rain
10:54 AM 46.9 °F - 44.1 °F 90% 29.74 in 9.0 mi SSW 10.4 mph - 0.01 in Rain Light Rain
11:54 AM 46.9 °F - 45.0 °F 93% 29.72 in 8.0 mi South 9.2 mph - 0.02 in Rain Light Rain
12:25 PM 46.4 °F 42.4 °F 44.6 °F 93% 29.69 in 7.0 mi South 8.1 mph - 0.02 in Rain Light Rain
12:54 PM 48.0 °F - 45.0 °F 89% 29.71 in 5.0 mi SSW 11.5 mph - 0.02 in Rain Light Rain
1:09 PM 46.4 °F 41.1 °F 44.6 °F 93% 29.70 in 2.5 mi WSW 11.5 mph - 0.04 in Rain Rain
1:19 PM 44.6 °F 36.4 °F 41.0 °F 87% 29.71 in 3.0 mi WNW 20.7 mph 29.9 mph 0.06 in Rain Light Rain
1:28 PM 44.6 °F 36.9 °F 41.0 °F 87% 29.71 in 6.0 mi WNW 18.4 mph 24.2 mph 0.07 in Rain Light Rain
1:30 PM 44.6 °F 37.2 °F 41.0 °F 87% 29.71 in 6.0 mi WNW 17.3 mph - 0.07 in Rain Light Rain
1:42 PM 44.6 °F 37.4 °F 39.2 °F 81% 29.71 in 6.0 mi WNW 16.1 mph 26.5 mph 0.09 in Rain Light Rain
1:54 PM 43.0 °F 34.2 °F 39.0 °F 86% 29.74 in 6.0 mi West 20.7 mph 26.5 mph 0.10 in Rain Light Rain
2:43 PM 41.0 °F 35.2 °F 37.4 °F 87% 29.74 in 5.0 mi WNW 9.2 mph - 0.05 in Rain Light Rain
2:54 PM 41.0 °F 33.5 °F 37.9 °F 89% 29.78 in 6.0 mi West 13.8 mph 19.6 mph 0.06 in Rain Light Rain
3:18 PM - - - N/A% 29.75 in - North - - N/A   Unknown
3:54 PM - - - N/A% 29.74 in - North - - N/A   Unknown
4:54 PM 41.0 °F 37.1 °F 41.0 °F 100% 29.78 in 10.0 mi WSW 5.8 mph - N/A   Scattered Clouds
5:54 PM 41.0 °F 35.8 °F 41.0 °F 100% 29.79 in 10.0 mi SW 8.1 mph - N/A   Mostly Cloudy
6:54 PM 41.0 °F 35.8 °F 39.0 °F 93% 29.79 in 10.0 mi SW 8.1 mph - N/A   Overcast
7:54 PM 42.1 °F 36.6 °F 37.9 °F 85% 29.80 in 10.0 mi SW 9.2 mph - N/A   Overcast
8:54 PM 41.0 °F 34.7 °F 34.0 °F 76% 29.81 in 10.0 mi West 10.4 mph - N/A   Mostly Cloudy
9:54 PM 41.0 °F 35.8 °F 32.0 °F 70% 29.82 in 10.0 mi West 8.1 mph - N/A   Overcast
10:54 PM 39.9 °F 32.1 °F 32.0 °F 73% 29.84 in 10.0 mi WNW 13.8 mph - N/A   Scattered Clouds
11:54 PM 39.0 °F 31.0 °F 32.0 °F 76% 29.84 in 10.0 mi NW 13.8 mph 21.9 mph N/A   Partly Cloudy